TimeEDT,TemperatureF,Dew PointF,Humidity,Sea Level PressureIn,VisibilityMPH,Wind Direction,Wind SpeedMPH,Gust SpeedMPH,PrecipitationIn,Events,Conditions,WindDirDegrees,DateUTC
12:52 AM,72.0,69.1,91,30.09,6.0,SSW,6.9,-,N/A,,Overcast,200,2013-09-11 04:52:00
1:52 AM,71.1,69.1,93,30.07,6.0,SSW,5.8,-,N/A,,Overcast,200,2013-09-11 05:52:00
2:24 AM,71.1,69.1,93,30.07,5.0,SSW,4.6,-,N/A,,Scattered Clouds,200,2013-09-11 06:24:00
2:52 AM,71.1,69.1,93,30.06,6.0,Variable,4.6,-,N/A,,Clear,0,2013-09-11 06:52:00
3:52 AM,70.0,68.0,93,30.06,4.0,Calm,Calm,-,N/A,,Clear,0,2013-09-11 07:52:00
4:52 AM,70.0,68.0,93,30.06,5.0,Calm,Calm,-,N/A,,Clear,0,2013-09-11 08:52:00
5:52 AM,69.1,68.0,96,30.06,4.0,SE,3.5,-,N/A,,Clear,130,2013-09-11 09:52:00
6:28 AM,69.1,68.0,96,30.07,2.0,Calm,Calm,-,N/A,,Clear,0,2013-09-11 10:28:00
6:52 AM,70.0,68.0,93,30.07,2.5,Calm,Calm,-,N/A,,Clear,0,2013-09-11 10:52:00
7:23 AM,71.1,69.1,93,30.07,3.0,Variable,3.5,-,N/A,,Clear,0,2013-09-11 11:23:00
7:52 AM,73.9,70.0,87,30.08,5.0,South,5.8,-,N/A,,Clear,190,2013-09-11 11:52:00
8:52 AM,77.0,70.0,79,30.08,6.0,SW,5.8,-,N/A,,Haze,230,2013-09-11 12:52:00
9:52 AM,79.0,71.1,77,30.09,7.0,SSW,6.9,-,N/A,,Clear,200,2013-09-11 13:52:00
10:52 AM,82.9,73.0,72,30.07,7.0,South,8.1,-,N/A,,Clear,190,2013-09-11 14:52:00
11:52 AM,87.1,73.9,65,30.06,7.0,SW,4.6,-,N/A,,Clear,220,2013-09-11 15:52:00
12:52 PM,89.1,73.9,61,30.04,7.0,SSW,6.9,-,N/A,,Clear,200,2013-09-11 16:52:00
1:52 PM,91.9,75.0,58,30.02,7.0,WSW,8.1,-,N/A,,Clear,240,2013-09-11 17:52:00
2:52 PM,93.0,73.9,54,30.00,9.0,South,8.1,-,N/A,,Clear,190,2013-09-11 18:52:00
3:52 PM,91.0,75.0,59,29.99,7.0,SW,9.2,-,N/A,,Clear,220,2013-09-11 19:52:00
4:52 PM,87.1,73.9,65,29.98,7.0,SSW,9.2,-,N/A,,Clear,200,2013-09-11 20:52:00
5:52 PM,84.0,73.0,69,29.97,6.0,SSW,10.4,20.7,N/A,,Haze,210,2013-09-11 21:52:00
6:52 PM,80.1,71.1,74,29.98,7.0,SSW,10.4,-,N/A,,Clear,210,2013-09-11 22:52:00
7:52 PM,78.1,70.0,76,30.01,9.0,Variable,5.8,-,N/A,,Clear,0,2013-09-11 23:52:00
8:52 PM,77.0,69.1,76,30.02,8.0,SSW,8.1,17.3,N/A,,Clear,210,2013-09-12 00:52:00
9:52 PM,75.9,69.1,79,30.01,8.0,SW,8.1,-,N/A,,Clear,220,2013-09-12 01:52:00
10:52 PM,73.9,69.1,85,30.01,7.0,Variable,6.9,-,N/A,,Clear,0,2013-09-12 02:52:00
11:52 PM,73.9,69.1,85,29.99,7.0,SW,5.8,-,N/A,,Clear,220,2013-09-12 03:52:00